QPF
0.00 0.00 0.00 0.00 0.01 0.01 0.01 0.00 0.00 0.00 0.00 0.00 0.00 0.01 0.01 0.01 0.00 0.00 0.00 0.00 0.00 0.00 0.00 0.01 0.02 0.02 0.02 0.02 0.01 0.00 0.00 0.00 0.00 0.00 0.00 0.00 0.00 0.00 0.00 0.00 0.00 0.00 0.00
0.00 0.00 0.00 0.00 0.00 0.01 0.01 0.00 0.00 0.00 0.00 0.00 0.00 0.00 0.00 0.00 0.00 0.00 0.00 0.00 0.00 0.00 0.00 0.00 0.00 0.00 0.01 0.01 0.00 0.00 0.00 0.00 0.00 0.00 0.00 0.00 0.00 0.00 0.00 0.00 0.00 0.00 0.01
0.00 0.00 0.00 0.00 0.00 0.00 0.00 0.00 0.00 0.00 0.00 0.00 0.00 0.00 0.00 0.00 0.00 0.00 0.00 0.00 0.00 0.00 0.00 0.00 0.00 0.00 0.00 0.00 0.00 0.00 0.00 0.00 0.00 0.00 0.00 0.00 0.00 0.00 0.00 0.00 0.00 0.00 0.00
0.00 0.00 0.00 0.00 0.00 0.00 0.00 0.00 0.00 0.00 0.00 0.00 0.00 0.00 0.00 0.00 0.00 0.00 0.00 0.00 0.00 0.00 0.00 0.00 0.00 0.00 0.00 0.00 0.00 0.00 0.00 0.00 0.00 0.00 0.00 0.00 0.00 0.00 0.00 0.00 0.00 0.00 0.00
0.00 0.00 0.00 0.00 0.00 0.00 0.00 0.00 0.00 0.00 0.00 0.00 0.00 0.00 0.00 0.00 0.01 0.01 0.00 0.00 0.00 0.00 0.00 0.00 0.00 0.00 0.00 0.00 0.00 0.00 0.00 0.00 0.00 0.00 0.00 0.00 0.00 0.00 0.00 0.00 0.00 0.00 0.00
0.00 0.00 0.00 0.00 0.00 0.00 0.00 0.00 0.00 0.00 0.00 0.00 0.00 0.00 0.00 0.01 0.02 0.02 0.00 0.00 0.00 0.00 0.00 0.00 0.00 0.00 0.00 0.00 0.00 0.00 0.00 0.00 0.00 0.00 0.00 0.00 0.00 0.00 0.00 0.00 0.00 0.00 0.00
0.00 0.00 0.00 0.00 0.00 0.00 0.00 0.00 0.00 0.00 0.00 0.00 0.00 0.00 0.00 0.00 0.01 0.01 0.00 0.00 0.00 0.00 0.00 0.00 0.00 0.00 0.00 0.00 0.00 0.00 0.00 0.00 0.00 0.00 0.00 0.00 0.00 0.00 0.00 0.00 0.00 0.00 0.00
0.00 0.00 0.00 0.00 0.00 0.00 0.00 0.00 0.00 0.00 0.00 0.00 0.00 0.00 0.00 0.00 0.00 0.01 0.00 0.00 0.00 0.00 0.00 0.00 0.00 0.00 0.00 0.00 0.00 0.00 0.00 0.00 0.00 0.00 0.00 0.00 0.00 0.00 0.00 0.00 0.00 0.00 0.00
0.00 0.00 0.00 0.00 0.00 0.00 0.00 0.00 0.00 0.00 0.00 0.00 0.00 0.00 0.00 0.00 0.00 0.00 0.00 0.00 0.00 0.00 0.00 0.00 0.00 0.00 0.00 0.00 0.00 0.00 0.00 0.00 0.00 0.00 0.00 0.00 0.00 0.00 0.00 0.00 0.00 0.00 0.00
0.00 0.00 0.00 0.00 0.00 0.00 0.00 0.00 0.00 0.00 0.00 0.00 0.00 0.00 0.00 0.00 0.00 0.00 0.00 0.00 0.00 0.00 0.00 0.00 0.00 0.00 0.00 0.00 0.00 0.00 0.00 0.00 0.00 0.00 0.00 0.00 0.00 0.00 0.00 0.00 0.00 0.00 0.00
0.00 0.00 0.00 0.00 0.00 0.00 0.00 0.00 0.00 0.00 0.00 0.00 0.00 0.00 0.00 0.00 0.00 0.00 0.00 0.00 0.00 0.00 0.00 0.00 0.00 0.00 0.00 0.00 0.00 0.00 0.00 0.00 0.00 0.00 0.00 0.00 0.00 0.00 0.00 0.00 0.00 0.00 0.00
0.00 0.00 0.00 0.00 0.00 0.00 0.00 0.00 0.00 0.00 0.00 0.00 0.00 0.00 0.00 0.00 0.00 0.00 0.00 0.00 0.00 0.00 0.00 0.00 0.00 0.00 0.00 0.00 0.00 0.00 0.00 0.00 0.00 0.00 0.00 0.00 0.00 0.00 0.01 0.01 0.01 0.01 0.01
0.00 0.00 0.00 0.00 0.00 0.00 0.00 0.00 0.00 0.00 0.00 0.00 0.00 0.00 0.00 0.00 0.00 0.00 0.00 0.00 0.00 0.00 0.00 0.00 0.00 0.00 0.00 0.00 0.00 0.00 0.00 0.00 0.00 0.00 0.00 0.00 0.00 0.01 0.01 0.02 0.02 0.02 0.02
0.00 0.00 0.00 0.00 0.00 0.00 0.00 0.00 0.00 0.00 0.00 0.00 0.00 0.00 0.00 0.00 0.00 0.00 0.00 0.00 0.00 0.00 0.00 0.00 0.00 0.00 0.00 0.00 0.00 0.00 0.00 0.00 0.00 0.00 0.00 0.00 0.00 0.00 0.01 0.02 0.02 0.03 0.03
0.00 0.00 0.00 0.00 0.00 0.00 0.00 0.00 0.00 0.00 0.00 0.00 0.00 0.00 0.00 0.00 0.00 0.00 0.00 0.00 0.00 0.00 0.00 0.00 0.00 0.00 0.00 0.00 0.00 0.00 0.00 0.00 0.00 0.00 0.00 0.00 0.00 0.00 0.00 0.01 0.01 0.02 0.03
0.00 0.00 0.00 0.00 0.00 0.00 0.00 0.00 0.00 0.00 0.00 0.00 0.00 0.00 0.00 0.00 0.00 0.00 0.00 0.00 0.00 0.00 0.00 0.00 0.00 0.00 0.00 0.00 0.00 0.00 0.00 0.00 0.00 0.00 0.00 0.00 0.00 0.00 0.00 0.00 0.01 0.02 0.03
0.00 0.00 0.00 0.00 0.00 0.00 0.00 0.00 0.00 0.00 0.00 0.00 0.00 0.00 0.00 0.00 0.00 0.00 0.00 0.00 0.00 0.00 0.00 0.00 0.00 0.00 0.00 0.00 0.00 0.00 0.00 0.00 0.00 0.00 0.00 0.00 0.00 0.00 0.00 0.00 0.01 0.02 0.02
0.00 0.00 0.00 0.00 0.00 0.00 0.00 0.00 0.00 0.00 0.00 0.00 0.00 0.00 0.00 0.00 0.00 0.00 0.00 0.00 0.00 0.00 0.00 0.00 0.00 0.00 0.00 0.00 0.00 0.00 0.00 0.00 0.00 0.00 0.00 0.00 0.00 0.00 0.00 0.00 0.00 0.01 0.01
0.00 0.00 0.00 0.00 0.00 0.00 0.00 0.00 0.00 0.00 0.00 0.00 0.00 0.00 0.00 0.00 0.00 0.00 0.00 0.00 0.00 0.00 0.00 0.00 0.00 0.00 0.00 0.00 0.00 0.00 0.00 0.00 0.00 0.00 0.00 0.00 0.00 0.00 0.00 0.00 0.00 0.00 0.00
0.00 0.00 0.00 0.00 0.00 0.00 0.00 0.00 0.00 0.00 0.00 0.00 0.00 0.00 0.00 0.00 0.00 0.00 0.00 0.00 0.00 0.00 0.00 0.00 0.00 0.00 0.00 0.00 0.00 0.00 0.00 0.00 0.00 0.00 0.00 0.00 0.00 0.00 0.00 0.00 0.00 0.00 0.00
0.00 0.00 0.00 0.00 0.00 0.00 0.00 0.00 0.00 0.00 0.00 0.00 0.00 0.00 0.00 0.00 0.00 0.00 0.00 0.00 0.00 0.00 0.00 0.00 0.00 0.00 0.00 0.00 0.00 0.00 0.00 0.00 0.00 0.00 0.00 0.00 0.00 0.00 0.00 0.00 0.00 0.00 0.00
0.00 0.00 0.00 0.00 0.00 0.00 0.00 0.00 0.00 0.00 0.00 0.00 0.00 0.00 0.00 0.00 0.00 0.00 0.00 0.00 0.00 0.00 0.00 0.00 0.00 0.00 0.00 0.00 0.00 0.00 0.00 0.00 0.00 0.00 0.00 0.00 0.00 0.00 0.00 0.00 0.00 0.00 0.00
0.00 0.00 0.00 0.00 0.00 0.00 0.00 0.00 0.00 0.00 0.00 0.00 0.00 0.00 0.00 0.00 0.00 0.00 0.00 0.00 0.00 0.00 0.00 0.00 0.00 0.00 0.00 0.00 0.00 0.00 0.00 0.00 0.00 0.00 0.00 0.00 0.00 0.00 0.00 0.00 0.00 0.00 0.00
0.00 0.00 0.00 0.00 0.00 0.00 0.00 0.00 0.00 0.00 0.00 0.00 0.00 0.00 0.00 0.00 0.00 0.00 0.00 0.00 0.00 0.00 0.00 0.00 0.00 0.00 0.00 0.00 0.00 0.00 0.00 0.00 0.00 0.00 0.00 0.00 0.00 0.00 0.00 0.00 0.00 0.00 0.00
0.00 0.00 0.00 0.00 0.00 0.00 0.00 0.00 0.00 0.00 0.00 0.00 0.00 0.00 0.00 0.00 0.00 0.00 0.00 0.00 0.00 0.00 0.00 0.00 0.00 0.00 0.00 0.00 0.00 0.00 0.00 0.00 0.00 0.00 0.00 0.00 0.00 0.00 0.00 0.00 0.00 0.00 0.00
0.00 0.00 0.00 0.00 0.00 0.00 0.00 0.00 0.00 0.00 0.00 0.00 0.00 0.00 0.00 0.00 0.00 0.00 0.00 0.00 0.00 0.00 0.00 0.00 0.00 0.00 0.00 0.00 0.00 0.00 0.00 0.00 0.00 0.00 0.00 0.00 0.00 0.00 0.00 0.00 0.00 0.00 0.00
MSLP
1011.99 1011.68 1011.50 1011.51 1011.69 1012.00 1012.35 1012.68 1012.92 1013.05 1013.08 1013.06 1013.05 1013.09 1013.22 1013.44 1013.70 1013.96 1014.18 1014.30 1014.32 1014.26 1014.14 1014.02 1013.93 1013.89 1013.90 1013.95 1014.01 1014.07 1014.10 1014.11 1014.09 1014.06 1014.03 1014.01 1013.98 1013.95 1013.89 1013.82 1013.72 1013.62 1013.52
1011.76 1011.50 1011.37 1011.43 1011.66 1012.00 1012.38 1012.72 1012.97 1013.10 1013.13 1013.11 1013.10 1013.15 1013.27 1013.48 1013.74 1013.99 1014.20 1014.33 1014.37 1014.34 1014.26 1014.18 1014.11 1014.09 1014.10 1014.13 1014.16 1014.17 1014.16 1014.13 1014.08 1014.03 1013.99 1013.95 1013.92 1013.87 1013.81 1013.71 1013.60 1013.49 1013.40
1011.40 1011.20 1011.14 1011.27 1011.56 1011.95 1012.37 1012.74 1013.01 1013.16 1013.20 1013.19 1013.17 1013.21 1013.33 1013.52 1013.75 1013.99 1014.19 1014.32 1014.38 1014.38 1014.34 1014.30 1014.27 1014.26 1014.27 1014.28 1014.29 1014.26 1014.21 1014.14 1014.07 1014.00 1013.95 1013.91 1013.87 1013.82 1013.75 1013.65 1013.54 1013.43 1013.35
1010.97 1010.84 1010.86 1011.07 1011.43 1011.88 1012.35 1012.75 1013.05 1013.21 1013.26 1013.25 1013.24 1013.27 1013.37 1013.53 1013.74 1013.95 1014.13 1014.26 1014.34 1014.36 1014.36 1014.35 1014.35 1014.36 1014.38 1014.38 1014.36 1014.31 1014.24 1014.14 1014.05 1013.98 1013.92 1013.88 1013.84 1013.79 1013.72 1013.62 1013.51 1013.41 1013.34
1010.57 1010.51 1010.62 1010.90 1011.32 1011.82 1012.32 1012.76 1013.06 1013.24 1013.30 1013.29 1013.28 1013.30 1013.38 1013.52 1013.70 1013.88 1014.04 1014.16 1014.24 1014.28 1014.30 1014.32 1014.35 1014.38 1014.40 1014.40 1014.36 1014.30 1014.21 1014.11 1014.02 1013.94 1013.89 1013.84 1013.80 1013.74 1013.67 1013.57 1013.47 1013.38 1013.33
1010.29 1010.30 1010.47 1010.81 1011.28 1011.81 1012.32 1012.75 1013.06 1013.23 1013.29 1013.29 1013.28 1013.30 1013.37 1013.50 1013.65 1013.81 1013.95 1014.05 1014.11 1014.16 1014.19 1014.22 1014.26 1014.29 1014.31 1014.31 1014.28 1014.21 1014.13 1014.03 1013.94 1013.87 1013.81 1013.76 1013.71 1013.64 1013.55 1013.45 1013.35 1013.27 1013.23
1010.16 1010.23 1010.45 1010.83 1011.32 1011.85 1012.34 1012.75 1013.03 1013.19 1013.24 1013.25 1013.25 1013.28 1013.35 1013.47 1013.61 1013.75 1013.86 1013.94 1013.99 1014.02 1014.04 1014.06 1014.10 1014.13 1014.15 1014.14 1014.11 1014.05 1013.97 1013.88 1013.80 1013.73 1013.68 1013.61 1013.54 1013.45 1013.33 1013.21 1013.11 1013.03 1012.99
1010.20 1010.31 1010.57 1010.96 1011.43 1011.93 1012.38 1012.74 1012.98 1013.11 1013.16 1013.17 1013.19 1013.24 1013.33 1013.46 1013.59 1013.71 1013.80 1013.85 1013.88 1013.88 1013.88 1013.89 1013.90 1013.92 1013.92 1013.91 1013.88 1013.82 1013.75 1013.67 1013.60 1013.53 1013.45 1013.37 1013.26 1013.13 1012.98 1012.83 1012.70 1012.61 1012.58
1010.33 1010.47 1010.74 1011.12 1011.57 1012.01 1012.40 1012.70 1012.89 1012.99 1013.04 1013.07 1013.12 1013.20 1013.32 1013.46 1013.60 1013.71 1013.78 1013.80 1013.80 1013.77 1013.74 1013.72 1013.71 1013.70 1013.69 1013.66 1013.62 1013.56 1013.48 1013.41 1013.33 1013.25 1013.15 1013.03 1012.89 1012.71 1012.51 1012.31 1012.15 1012.04 1011.99
1010.45 1010.61 1010.88 1011.25 1011.65 1012.03 1012.36 1012.60 1012.75 1012.84 1012.89 1012.95 1013.03 1013.16 1013.31 1013.47 1013.62 1013.72 1013.77 1013.78 1013.74 1013.69 1013.63 1013.59 1013.55 1013.52 1013.48 1013.43 1013.37 1013.30 1013.21 1013.13 1013.03 1012.93 1012.80 1012.65 1012.45 1012.22 1011.97 1011.72 1011.51 1011.37 1011.31
1010.46 1010.63 1010.90 1011.25 1011.61 1011.95 1012.22 1012.42 1012.55 1012.64 1012.72 1012.81 1012.94 1013.10 1013.29 1013.47 1013.63 1013.73 1013.77 1013.76 1013.71 1013.65 1013.58 1013.51 1013.45 1013.40 1013.34 1013.27 1013.18 1013.08 1012.97 1012.86 1012.74 1012.61 1012.45 1012.26 1012.02 1011.74 1011.44 1011.15 1010.89 1010.71 1010.62
1010.28 1010.47 1010.74 1011.07 1011.41 1011.72 1011.97 1012.15 1012.29 1012.40 1012.51 1012.65 1012.83 1013.04 1013.26 1013.46 1013.62 1013.72 1013.76 1013.75 1013.70 1013.64 1013.57 1013.50 1013.44 1013.37 1013.29 1013.19 1013.07 1012.94 1012.80 1012.65 1012.50 1012.34 1012.15 1011.93 1011.66 1011.35 1011.02 1010.69 1010.39 1010.16 1010.02
1009.92 1010.12 1010.39 1010.72 1011.05 1011.35 1011.60 1011.80 1011.97 1012.13 1012.29 1012.49 1012.72 1012.96 1013.20 1013.42 1013.59 1013.69 1013.74 1013.74 1013.71 1013.67 1013.62 1013.57 1013.51 1013.44 1013.35 1013.22 1013.06 1012.89 1012.71 1012.52 1012.34 1012.15 1011.95 1011.71 1011.43 1011.12 1010.77 1010.42 1010.09 1009.81 1009.62
1009.42 1009.62 1009.91 1010.23 1010.57 1010.88 1011.16 1011.41 1011.64 1011.86 1012.09 1012.34 1012.62 1012.89 1013.15 1013.38 1013.55 1013.66 1013.73 1013.75 1013.75 1013.74 1013.73 1013.71 1013.68 1013.61 1013.50 1013.34 1013.15 1012.93 1012.71 1012.49 1012.28 1012.07 1011.86 1011.64 1011.38 1011.07 1010.73 1010.38 1010.03 1009.71 1009.46
1008.88 1009.09 1009.37 1009.70 1010.05 1010.40 1010.73 1011.04 1011.34 1011.63 1011.94 1012.25 1012.56 1012.86 1013.14 1013.36 1013.54 1013.67 1013.75 1013.81 1013.86 1013.90 1013.93 1013.94 1013.93 1013.86 1013.74 1013.56 1013.33 1013.07 1012.81 1012.55 1012.32 1012.11 1011.91 1011.71 1011.48 1011.22 1010.91 1010.57 1010.21 1009.86 1009.55
1008.42 1008.61 1008.89 1009.23 1009.60 1009.99 1010.38 1010.76 1011.14 1011.51 1011.88 1012.25 1012.60 1012.91 1013.19 1013.42 1013.61 1013.75 1013.87 1013.96 1014.06 1014.14 1014.21 1014.26 1014.26 1014.19 1014.06 1013.85 1013.59 1013.30 1013.00 1012.72 1012.47 1012.27 1012.09 1011.92 1011.73 1011.51 1011.24 1010.93 1010.58 1010.21 1009.85
1008.11 1008.30 1008.56 1008.90 1009.29 1009.72 1010.16 1010.62 1011.08 1011.53 1011.97 1012.37 1012.75 1013.08 1013.36 1013.59 1013.79 1013.95 1014.09 1014.23 1014.36 1014.49 1014.59 1014.65 1014.66 1014.59 1014.43 1014.20 1013.91 1013.59 1013.27 1012.97 1012.72 1012.51 1012.34 1012.20 1012.05 1011.88 1011.66 1011.38 1011.05 1010.68 1010.28
1008.01 1008.17 1008.42 1008.75 1009.16 1009.62 1010.13 1010.66 1011.19 1011.71 1012.19 1012.64 1013.03 1013.36 1013.65 1013.89 1014.09 1014.28 1014.45 1014.62 1014.78 1014.93 1015.04 1015.11 1015.11 1015.02 1014.84 1014.59 1014.28 1013.94 1013.60 1013.29 1013.03 1012.82 1012.66 1012.52 1012.40 1012.25 1012.06 1011.82 1011.51 1011.14 1010.73
1008.09 1008.23 1008.45 1008.78 1009.20 1009.70 1010.26 1010.86 1011.45 1012.03 1012.56 1013.02 1013.43 1013.77 1014.05 1014.30 1014.52 1014.72 1014.92 1015.11 1015.29 1015.44 1015.55 1015.60 1015.58 1015.47 1015.27 1015.00 1014.68 1014.33 1013.99 1013.67 1013.39 1013.17 1012.99 1012.84 1012.71 1012.56 1012.39 1012.16 1011.87 1011.52 1011.12
1008.29 1008.40 1008.61 1008.94 1009.37 1009.91 1010.53 1011.18 1011.83 1012.45 1013.01 1013.50 1013.91 1014.25 1014.54 1014.79 1015.02 1015.24 1015.46 1015.66 1015.84 1015.99 1016.08 1016.10 1016.05 1015.91 1015.70 1015.42 1015.10 1014.76 1014.41 1014.09 1013.79 1013.53 1013.31 1013.12 1012.95 1012.77 1012.58 1012.35 1012.08 1011.76 1011.38
1008.53 1008.63 1008.83 1009.15 1009.61 1010.19 1010.86 1011.56 1012.27 1012.93 1013.52 1014.02 1014.43 1014.77 1015.06 1015.31 1015.56 1015.79 1016.01 1016.22 1016.39 1016.52 1016.58 1016.57 1016.48 1016.32 1016.10 1015.82 1015.52 1015.19 1014.86 1014.53 1014.21 1013.91 1013.62 1013.35 1013.10 1012.86 1012.63 1012.38 1012.11 1011.82 1011.48
1008.73 1008.83 1009.03 1009.37 1009.86 1010.48 1011.19 1011.95 1012.71 1013.40 1014.01 1014.52 1014.93 1015.27 1015.56 1015.82 1016.07 1016.31 1016.53 1016.73 1016.89 1016.98 1017.01 1016.96 1016.84 1016.67 1016.45 1016.19 1015.92 1015.62 1015.31 1014.98 1014.63 1014.28 1013.91 1013.54 1013.19 1012.86 1012.55 1012.27 1011.99 1011.72 1011.42
1008.87 1008.99 1009.20 1009.57 1010.08 1010.74 1011.50 1012.31 1013.10 1013.82 1014.45 1014.97 1015.38 1015.72 1016.01 1016.27 1016.51 1016.76 1016.98 1017.16 1017.29 1017.35 1017.34 1017.26 1017.12 1016.94 1016.73 1016.51 1016.28 1016.02 1015.74 1015.41 1015.04 1014.62 1014.17 1013.69 1013.23 1012.79 1012.39 1012.05 1011.76 1011.50 1011.24
1008.95 1009.10 1009.34 1009.73 1010.28 1010.97 1011.77 1012.61 1013.43 1014.18 1014.82 1015.34 1015.76 1016.09 1016.37 1016.63 1016.87 1017.11 1017.32 1017.48 1017.58 1017.61 1017.57 1017.46 1017.30 1017.12 1016.94 1016.75 1016.56 1016.35 1016.10 1015.79 1015.40 1014.93 1014.39 1013.81 1013.23 1012.68 1012.20 1011.79 1011.47 1011.20 1010.97
1009.02 1009.22 1009.49 1009.90 1010.47 1011.19 1012.01 1012.87 1013.71 1014.47 1015.12 1015.64 1016.05 1016.38 1016.66 1016.91 1017.15 1017.37 1017.56 1017.70 1017.77 1017.77 1017.69 1017.56 1017.39 1017.22 1017.05 1016.90 1016.76 1016.60 1016.38 1016.08 1015.68 1015.16 1014.55 1013.89 1013.21 1012.56 1011.99 1011.51 1011.15 1010.87 1010.64
1009.14 1009.39 1009.70 1010.13 1010.72 1011.44 1012.26 1013.12 1013.96 1014.72 1015.37 1015.88 1016.29 1016.61 1016.89 1017.13 1017.35 1017.56 1017.72 1017.84 1017.88 1017.84 1017.73 1017.57 1017.39 1017.22 1017.07 1016.96 1016.85 1016.73 1016.54 1016.26 1015.85 1015.31 1014.65 1013.92 1013.16 1012.43 1011.77 1011.24 1010.82 1010.51 1010.26
Thickness
5760 5762 5761 5757 5755 5752 5749 5746 5743 5741 5739 5738 5737 5735 5733 5732 5731 5730 5729 5728 5728 5728 5728 5728 5730 5730 5730 5730 5729 5728 5726 5725 5725 5724 5723 5722 5721 5720 5720 5719 5717 5715 5716
5763 5761 5758 5755 5752 5750 5747 5744 5741 5739 5737 5735 5734 5733 5731 5729 5728 5727 5725 5725 5725 5725 5725 5724 5725 5725 5724 5724 5724 5723 5722 5722 5722 5721 5720 5719 5718 5717 5717 5717 5715 5714 5714
5760 5757 5755 5752 5749 5747 5744 5742 5739 5737 5735 5733 5731 5730 5729 5727 5725 5723 5722 5721 5721 5721 5721 5720 5720 5719 5719 5718 5718 5718 5717 5717 5717 5717 5716 5715 5715 5716 5715 5714 5713 5712 5711
5757 5754 5752 5749 5746 5743 5742 5740 5738 5735 5733 5731 5729 5727 5727 5725 5723 5721 5719 5718 5717 5717 5717 5716 5715 5715 5714 5713 5713 5713 5712 5712 5712 5712 5711 5711 5711 5713 5713 5712 5710 5709 5709
5753 5751 5749 5745 5742 5740 5738 5737 5735 5733 5730 5728 5726 5724 5724 5724 5721 5719 5717 5716 5715 5714 5713 5712 5711 5711 5710 5710 5710 5709 5709 5708 5708 5707 5707 5707 5707 5708 5709 5708 5708 5707 5706
5748 5747 5745 5742 5739 5737 5736 5734 5732 5730 5727 5725 5723 5722 5722 5722 5721 5719 5717 5714 5712 5711 5709 5708 5709 5708 5708 5707 5707 5705 5705 5704 5703 5703 5702 5703 5703 5704 5705 5705 5704 5703 5702
5744 5743 5741 5739 5737 5735 5733 5732 5730 5727 5725 5723 5721 5721 5720 5720 5720 5718 5716 5713 5710 5709 5707 5706 5706 5706 5705 5705 5703 5702 5701 5700 5700 5699 5699 5699 5699 5700 5702 5702 5701 5700 5699
5743 5741 5738 5736 5734 5732 5731 5730 5727 5725 5722 5721 5720 5719 5719 5718 5717 5716 5713 5711 5708 5706 5705 5704 5703 5702 5702 5702 5700 5699 5698 5697 5697 5696 5696 5696 5696 5697 5698 5698 5697 5696 5694
5741 5738 5735 5733 5731 5730 5729 5727 5725 5722 5720 5720 5719 5718 5716 5715 5713 5712 5709 5707 5704 5703 5702 5700 5700 5699 5699 5699 5697 5696 5695 5694 5693 5693 5693 5693 5693 5694 5694 5694 5693 5692 5690
5736 5735 5733 5731 5729 5728 5727 5725 5723 5720 5719 5718 5717 5716 5714 5713 5710 5708 5705 5703 5701 5699 5698 5697 5696 5696 5696 5695 5694 5693 5692 5691 5690 5689 5689 5689 5690 5689 5689 5689 5688 5687 5686
5731 5731 5731 5729 5727 5726 5725 5723 5720 5718 5717 5717 5715 5714 5712 5710 5708 5705 5702 5700 5698 5697 5696 5694 5693 5692 5692 5691 5690 5689 5687 5686 5685 5684 5684 5685 5685 5685 5684 5684 5684 5683 5681
5727 5728 5728 5727 5726 5724 5722 5720 5718 5717 5715 5714 5712 5710 5708 5706 5705 5702 5699 5697 5695 5694 5692 5690 5689 5688 5687 5685 5685 5684 5683 5681 5680 5679 5678 5679 5679 5679 5680 5680 5679 5678 5677
5730 5728 5727 5725 5724 5722 5720 5718 5716 5715 5713 5711 5709 5707 5705 5702 5700 5697 5694 5692 5690 5689 5687 5685 5683 5681 5680 5679 5678 5677 5676 5675 5674 5673 5672 5672 5672 5672 5673 5674 5674 5674 5673
5726 5727 5727 5725 5723 5720 5718 5716 5714 5713 5711 5709 5706 5704 5702 5698 5695 5692 5688 5686 5684 5682 5681 5678 5675 5674 5672 5671 5669 5668 5667 5666 5665 5664 5664 5664 5664 5664 5665 5666 5668 5669 5669
5726 5726 5726 5724 5722 5719 5716 5714 5713 5711 5709 5706 5703 5701 5699 5695 5690 5686 5682 5679 5676 5675 5673 5670 5668 5666 5663 5662 5660 5659 5658 5657 5656 5656 5656 5655 5655 5655 5656 5657 5658 5660 5661
5726 5726 5724 5722 5720 5717 5714 5712 5711 5709 5705 5702 5699 5698 5695 5690 5684 5678 5673 5670 5667 5666 5664 5661 5658 5656 5654 5652 5651 5650 5649 5648 5647 5646 5646 5644 5644 5643 5643 5644 5644 5645 5646
5724 5723 5720 5718 5716 5713 5710 5709 5707 5705 5701 5697 5693 5691 5687 5680 5674 5669 5665 5661 5658 5657 5656 5653 5650 5647 5645 5643 5642 5642 5641 5640 5638 5636 5635 5633 5632 5631 5630 5630 5630 5631 5632
5719 5718 5716 5715 5710 5708 5706 5703 5700 5697 5694 5689 5686 5682 5676 5670 5665 5661 5656 5652 5650 5649 5646 5643 5638 5635 5632 5631 5630 5631 5631 5630 5628 5626 5625 5623 5621 5619 5616 5616 5615 5616 5617
5712 5712 5710 5709 5705 5702 5699 5694 5690 5687 5684 5679 5676 5671 5665 5659 5656 5652 5647 5643 5641 5638 5634 5631 5627 5624 5621 5620 5621 5622 5621 5619 5617 5616 5615 5612 5609 5607 5604 5603 5602 5601 5601
5704 5704 5703 5702 5699 5696 5691 5685 5680 5677 5673 5669 5665 5659 5654 5650 5646 5642 5637 5633 5630 5627 5622 5619 5615 5613 5611 5610 5612 5613 5612 5611 5608 5606 5603 5600 5597 5594 5590 5589 5587 5586 5585
5695 5695 5695 5694 5692 5690 5683 5677 5672 5666 5662 5657 5652 5648 5644 5639 5635 5631 5627 5622 5618 5614 5609 5606 5603 5600 5599 5598 5598 5598 5600 5600 5597 5595 5590 5585 5582 5578 5574 5572 5569 5568 5567
5687 5687 5687 5685 5683 5681 5677 5672 5666 5659 5652 5646 5641 5637 5632 5629 5624 5620 5615 5610 5605 5601 5596 5593 5590 5588 5586 5585 5583 5583 5581 5583 5584 5581 5576 5573 5567 5563 5559 5556 5553 5551 5549
5679 5679 5679 5676 5674 5671 5668 5663 5656 5650 5643 5635 5629 5624 5620 5617 5613 5608 5603 5598 5593 5588 5584 5581 5578 5576 5573 5571 5569 5565 5560 5558 5567 5571 5568 5561 5553 5549 5544 5540 5537 5533 5530
5672 5671 5670 5668 5665 5662 5660 5656 5651 5643 5634 5625 5619 5613 5609 5606 5601 5596 5591 5586 5581 5577 5573 5570 5568 5565 5562 5557 5553 5549 5542 5537 5533 5543 5552 5547 5541 5535 5529 5525 5519 5515 5511
5664 5663 5662 5660 5656 5653 5651 5647 5641 5632 5625 5616 5609 5603 5598 5594 5590 5585 5580 5575 5570 5566 5563 5560 5556 5553 5550 5545 5540 5535 5529 5522 5514 5508 5518 5523 5523 5519 5515 5510 5503 5496 5490
5655 5654 5653 5651 5646 5643 5640 5635 5630 5623 5615 5607 5599 5593 5587 5583 5578 5574 5570 5565 5561 5557 5553 5550 5546 5542 5537 5532 5525 5519 5513 5507 5503 5496 5498 5502 5500 5499 5496 5491 5483 5475 5467